PILOTS ONLINE: 186    ATC ONLINE: 19

KHHR

Jack Northrop Field Hawthorne Municipal Airport

Location

City Hawthorne
Country  United States
Latitude 33° 55' 22" N
Longitude 118° 20' 5" W
Elevation 66 ft
Type Medium Airport

Map

Weather

METAR
2014/09/03 03:53
KHHR 030353Z AUTO 28005KT 10SM OVC013 21/18 A2980 RMK AO2 SLP089 T02110183
TAF
No TAF available

Runways

07/25 4956 ft / 100 ft

Outbound flights

Callsign Flying to Pilot ATD/STD ETA Aircraft

Inbound flights

Callsign Flying from Pilot ATD ETA Aircraft